User: anonymous   Login
Location: Walnut Point State Park
(39.6958°N, 88.0345°W)
Time: 13:10:42
(UTC-05:00)
Language:

ATLAS 3B R/B - Orbit

View from above orbital plane
View from above orbital plane
View from above satellite
View from above satellite

Ground track
Ground track

The orbit data is extracted from the following two-line orbital elements,

1 28538U 05004B   17227.86991204 0.00000000  00000-0  00000-0 0    06
2 28538  63.8208 146.1338 0136000 172.3754 187.6246 13.43101214    04
Epoch (UTC): 15 August 2017 20:52:40
Eccentricity: 0.0136000
inclination: 63.8208°
perigee height: 996 km
apogee height: 1199 km
right ascension of ascending node: 146.1338°
argument of perigee: 172.3754°
revolutions per day: 13.43101214
mean anomaly at epoch: 187.6246°
orbit number at epoch: 0

The dashed part of the orbit path shows where the satellite is in the earth's shadow,  

DLR